Vorticity
12 11 10 9 9 8 8 7 7 10 12 10 8 9 6 8 12 11 7 8 8 9 8 7 8 8 9 3 6 28 17 20 9 52 2 25 18 -15 0 -2 4 -0 10
12 13 12 11 10 10 10 11 10 8 11 11 14 16 16 14 12 10 9 8 8 8 6 8 7 6 7 5 3 3 19 -15 30 18 10 45 -6 14 7 -15 28 6 -8
10 11 11 11 11 9 7 8 7 7 3 5 5 5 4 11 13 10 6 12 12 9 11 8 9 11 8 7 7 6 11 15 -4 -17 12 11 4 4 26 -7 3 -16 27
11 13 8 5 7 9 9 2 1 10 12 12 12 11 14 14 13 15 16 14 12 8 7 5 7 9 9 8 9 8 5 12 8 21 -17 19 30 14 -2 -29 13 24 19
8 7 14 13 4 -1 3 3 8 9 6 7 6 7 13 15 18 17 12 9 8 11 18 12 8 8 7 7 9 12 9 6 9 11 6 3 -29 -17 18 24 -11 19 -4
0 -3 0 6 -2 1 7 13 14 16 14 7 7 10 11 12 13 13 18 21 18 19 25 26 14 11 11 12 9 5 8 11 9 8 14 10 47 -18 -42 6 25 22 16
14 7 5 2 2 15 12 8 3 4 14 12 9 9 9 10 9 9 10 11 14 17 17 17 19 25 22 16 15 11 9 5 8 10 8 4 7 21 17 21 -44 -25 -5
3 11 -5 14 15 12 11 18 17 3 6 8 5 6 10 12 13 11 8 9 12 13 16 17 15 18 18 20 18 26 14 12 8 6 11 11 -1 3 20 3 22 26 10
-3 -7 9 10 9 3 7 9 3 4 6 4 7 8 12 9 8 5 7 9 12 14 14 15 15 13 15 17 16 16 22 21 16 11 8 12 11 2 2 14 -4 -13 37
1 9 14 10 12 11 13 2 4 5 6 6 9 9 9 6 9 5 9 6 7 11 15 15 15 16 14 15 15 15 16 22 18 17 15 11 11 8 3 5 8 6 -18
7 6 7 10 4 6 7 4 5 5 8 8 9 9 8 11 9 6 6 5 6 9 13 13 14 15 16 13 15 13 15 19 20 17 17 16 14 11 7 9 8 4 1
9 5 4 1 10 5 11 -3 7 7 10 10 11 9 12 12 8 6 5 4 6 7 13 12 12 13 14 15 14 16 14 16 20 18 16 18 15 15 13 6 8 5 5
7 5 9 8 7 8 8 3 7 8 12 10 6 13 13 10 7 6 6 5 6 6 12 13 14 13 13 14 14 14 16 16 17 21 17 17 18 15 17 13 6 10 7
21 26 3 4 16 3 15 4 6 15 8 7 10 12 11 9 8 7 7 6 6 7 11 11 14 15 15 14 14 14 15 17 15 18 20 15 18 19 15 17 13 8 9
11 7 12 14 11 20 15 11 14 8 9 10 11 10 10 10 9 9 8 8 8 9 10 11 13 14 15 15 14 14 16 17 17 15 19 17 16 17 19 19 16 12 11
6 6 15 18 13 13 15 10 12 12 11 12 10 10 10 9 9 9 10 10 11 10 10 10 13 13 15 16 15 15 14 14 17 17 15 19 16 16 15 19 20 14 12
19 17 15 10 13 14 16 14 11 9 8 8 9 9 10 10 10 11 11 11 11 11 10 10 12 14 16 15 15 15 16 15 15 15 16 17 19 14 16 16 18 24 14
15 15 16 16 16 12 9 6 7 8 9 9 8 9 9 10 9 10 11 12 11 11 10 10 11 14 13 15 16 17 17 15 13 14 16 16 19 17 15 14 18 23 24
13 14 11 10 6 7 8 10 10 11 10 10 9 8 9 9 10 10 10 11 11 11 9 10 10 14 13 13 13 15 17 17 15 13 14 15 15 20 17 15 18 19 28
9 10 10 11 12 12 11 10 9 8 8 8 8 8 8 9 10 11 11 11 10 11 9 9 10 13 13 12 13 15 13 13 14 14 14 15 15 16 19 15 14 18 25
12 12 10 9 8 8 9 8 8 8 7 8 9 9 8 9 10 11 12 11 10 9 10 7 9 12 14 14 14 15 14 13 12 12 13 14 15 15 15 17 15 17 10
10 10 10 9 9 10 10 10 10 9 9 9 8 8 8 9 11 12 12 11 11 10 10 9 8 10 15 16 13 13 13 12 11 9 9 12 12 10 11 12 17 18 11
11 11 10 10 10 11 10 11 12 11 10 10 9 9 9 11 11 12 13 12 11 10 11 9 8 10 11 14 11 13 13 13 13 10 8 11 8 15 6 14 17 16 16
11 11 10 11 11 10 10 11 12 12 12 11 9 10 11 12 12 12 12 12 12 12 11 9 8 7 8 11 13 13 13 11 13 13 13 13 14 10 13 13 11 15 18
11 11 11 12 11 11 11 12 12 12 11 11 10 12 12 12 12 12 13 13 10 12 12 10 9 9 7 9 13 12 11 14 13 12 10 12 12 11 14 25 36 38 30
11 11 12 12 12 12 12 11 12 11 11 11 11 12 11 11 11 13 13 9 12 12 12 11 9 9 8 11 14 12 14 14 16 13 14 12 12 17 20 16 16 24 28
Height
3104 3104 3103 3102 3102 3101 3100 3099 3098 3099 3099 3099 3100 3100 3101 3101 3101 3101 3100 3101 3101 3102 3103 3104 3105 3107 3110 3111 3112 3114 3118 3118 3119 3116 3119 3116 3123 3123 3127 3131 3134 3134 3138
3093 3095 3094 3094 3094 3093 3092 3091 3090 3089 3088 3087 3087 3088 3089 3090 3090 3091 3092 3091 3091 3091 3092 3092 3094 3095 3097 3099 3100 3101 3105 3109 3110 3112 3107 3107 3110 3112 3119 3122 3125 3127 3129
3086 3087 3087 3087 3087 3086 3084 3083 3081 3080 3079 3078 3077 3077 3076 3076 3077 3079 3079 3079 3080 3080 3080 3080 3081 3083 3085 3086 3088 3089 3091 3094 3102 3101 3099 3100 3098 3102 3105 3110 3115 3118 3121
3079 3080 3081 3081 3079 3078 3076 3074 3073 3071 3069 3067 3066 3064 3063 3063 3063 3062 3064 3066 3066 3067 3067 3068 3068 3069 3069 3073 3075 3076 3078 3079 3086 3090 3091 3089 3091 3092 3095 3099 3103 3105 3108
3075 3075 3075 3073 3072 3071 3069 3068 3066 3063 3061 3058 3056 3054 3052 3050 3050 3050 3049 3050 3052 3052 3053 3052 3053 3054 3055 3056 3059 3062 3064 3066 3069 3075 3079 3081 3083 3085 3086 3084 3089 3092 3095
3070 3069 3069 3067 3065 3063 3061 3060 3058 3055 3054 3052 3049 3046 3043 3041 3039 3037 3036 3036 3036 3037 3037 3037 3037 3038 3039 3041 3042 3045 3048 3051 3053 3060 3063 3065 3069 3077 3070 3072 3075 3080 3085
3064 3063 3061 3060 3058 3056 3054 3052 3050 3048 3046 3045 3042 3040 3036 3033 3030 3027 3025 3023 3023 3023 3023 3022 3021 3022 3023 3024 3025 3028 3031 3034 3037 3042 3048 3051 3054 3058 3060 3061 3064 3066 3071
3057 3055 3054 3053 3051 3050 3048 3046 3043 3041 3039 3037 3035 3032 3029 3026 3023 3021 3018 3014 3011 3010 3009 3009 3008 3007 3007 3007 3008 3010 3013 3016 3019 3024 3029 3035 3039 3044 3049 3049 3054 3055 3058
3050 3048 3047 3045 3044 3042 3040 3038 3036 3034 3032 3029 3027 3025 3021 3019 3016 3014 3010 3006 3003 2999 2997 2996 2995 2994 2993 2992 2991 2992 2995 2998 3001 3005 3011 3016 3023 3027 3032 3037 3040 3042 3043
3045 3043 3041 3039 3037 3035 3033 3030 3028 3026 3024 3021 3019 3016 3013 3011 3008 3005 3002 2998 2994 2990 2987 2984 2982 2981 2980 2978 2977 2976 2978 2979 2983 2986 2990 2997 3003 3009 3015 3022 3027 3031 3032
3037 3035 3033 3031 3029 3026 3024 3022 3020 3018 3016 3013 3010 3008 3005 3002 2999 2997 2993 2990 2986 2981 2977 2973 2971 2968 2967 2965 2963 2962 2961 2963 2965 2968 2970 2977 2983 2989 2996 3003 3010 3016 3019
3029 3026 3023 3021 3020 3017 3015 3013 3010 3008 3006 3003 3000 2998 2995 2993 2990 2988 2984 2980 2977 2973 2968 2963 2959 2956 2954 2951 2949 2948 2947 2947 2948 2951 2951 2956 2963 2968 2976 2982 2990 2998 3004
3018 3015 3013 3011 3010 3007 3005 3003 3000 2998 2996 2993 2990 2988 2985 2983 2980 2977 2974 2970 2966 2962 2958 2953 2948 2944 2941 2938 2936 2933 2933 2932 2932 2934 2936 2939 2942 2948 2955 2962 2970 2978 2985
3007 3004 3002 3001 2999 2997 2993 2992 2990 2987 2985 2982 2980 2978 2975 2973 2970 2967 2963 2959 2955 2951 2947 2942 2937 2933 2929 2926 2923 2920 2918 2918 2917 2919 2920 2922 2925 2929 2935 2942 2949 2957 2964
2996 2994 2992 2989 2987 2985 2983 2981 2979 2976 2974 2973 2970 2968 2965 2962 2959 2956 2953 2949 2945 2940 2936 2931 2927 2922 2918 2914 2910 2907 2905 2904 2903 2903 2905 2907 2909 2913 2916 2921 2930 2935 2943
2985 2983 2980 2978 2976 2975 2972 2972 2969 2967 2965 2963 2961 2958 2956 2953 2950 2946 2942 2938 2934 2930 2925 2921 2916 2911 2907 2904 2900 2897 2892 2890 2889 2889 2891 2893 2894 2896 2900 2903 2909 2916 2922
2975 2973 2971 2969 2967 2965 2964 2961 2960 2958 2956 2954 2952 2950 2947 2944 2940 2936 2932 2928 2924 2920 2915 2911 2906 2901 2897 2893 2889 2886 2882 2878 2877 2877 2877 2879 2880 2881 2883 2886 2890 2895 2901
2966 2964 2962 2960 2958 2957 2954 2953 2951 2949 2947 2944 2942 2940 2937 2934 2930 2926 2922 2918 2914 2910 2905 2901 2896 2890 2886 2883 2879 2876 2871 2867 2866 2865 2864 2863 2866 2868 2868 2870 2872 2876 2882
2958 2956 2954 2952 2950 2948 2946 2944 2942 2940 2938 2935 2934 2931 2927 2924 2921 2917 2913 2909 2904 2900 2896 2891 2886 2881 2876 2873 2868 2865 2861 2857 2854 2853 2852 2851 2851 2856 2858 2855 2853 2858 2863
2950 2947 2945 2943 2941 2939 2937 2935 2933 2931 2929 2927 2925 2922 2918 2914 2911 2907 2903 2900 2895 2890 2886 2882 2878 2872 2866 2863 2859 2855 2850 2846 2843 2841 2840 2840 2839 2839 2842 2840 2839 2838 2846
2941 2939 2936 2934 2932 2931 2928 2926 2924 2922 2919 2917 2915 2913 2909 2905 2901 2898 2894 2890 2886 2882 2878 2873 2870 2864 2859 2854 2850 2846 2841 2836 2832 2828 2826 2826 2826 2825 2825 2827 2825 2823 2830
2933 2930 2927 2925 2923 2920 2918 2916 2914 2912 2909 2907 2905 2903 2900 2896 2892 2888 2885 2881 2876 2872 2868 2863 2860 2856 2851 2846 2841 2836 2832 2828 2822 2816 2814 2812 2812 2811 2810 2809 2810 2811 2812
2923 2920 2917 2915 2913 2911 2908 2906 2904 2901 2899 2898 2896 2893 2890 2887 2883 2879 2876 2872 2868 2863 2859 2854 2850 2846 2842 2837 2833 2827 2822 2817 2811 2805 2801 2798 2795 2793 2792 2792 2791 2794 2792
2913 2910 2907 2905 2903 2900 2898 2895 2894 2891 2889 2888 2886 2883 2880 2877 2874 2870 2867 2863 2859 2854 2850 2845 2840 2835 2831 2827 2822 2816 2809 2805 2799 2792 2786 2782 2778 2776 2772 2769 2769 2769 2770
2903 2900 2897 2894 2892 2890 2888 2886 2884 2881 2878 2877 2875 2873 2870 2868 2865 2862 2858 2855 2852 2846 2841 2837 2831 2826 2821 2818 2812 2806 2799 2792 2786 2777 2770 2764 2759 2752 2747 2743 2741 2741 2742
2892 2890 2887 2884 2882 2880 2878 2876 2874 2871 2868 2867 2866 2864 2861 2858 2855 2852 2850 2849 2844 2840 2836 2831 2825 2821 2816 2810 2804 2798 2790 2783 2775 2765 2757 2749 2742 2733 2725 2719 2715 2715 2716